DECAYED
Showing default

CICERO 6, 42793 (Decayed)

Orbit data source: Space-Track

CICERO 6, 42793 was a payload satellite owned by GeoOptics (US) in LEO that was launched on Fri, 23 Jun 2017 UTC via a PSLV-XL launch vehicle from the Sirharikota (SRI). Payload-class satellites include a variety of spacecraft equipped with specific instruments for various scientific and technological missions. These include communications satellites like Starlink; space stations such as the ISS; scientific satellites like the Hubble; Earth observation satellites from companies like Planet Labs, Umbra, and HawkEye 360; GPS; miniature CubeSats for education and research; and military/defense satellites.

Not visible in the next 10 days
Identifier
42793, 2017-036AE
Orbit
Decayed
Country
Flag of USUS
Related business
Manufacturer
Tyvak NSS
Mission
Decayed Commercial Weather
Bus & Motor
CUBESAT 6U, Unknown motor
Mass
8 kg wet, 8 kg dry
Launch date (UTC)
2017-06-23 (8 years ago)
Launch vehicle
PSLV-XL
Launch site
Sirharikota (SRI)
Object type
Payload
Rocket body
Debris
Shape & HBR
Box + 2 Pan, 0.3 m
Radar Cross Section
0.079 m², Medium (>0.1 m² and < 1m²)

Expand to show TLE details & history
Last TLE update: 1 year ago

TLE from 1 year ago
0 CICERO 6
1 42793U 17036AE  24163.54141734  .14136259  24115-5  22659-3 0  9993
2 42793  97.0194 202.5662 0010261 237.3230 122.7085 16.47770263388951
Epoch: 2024-06-11T12:59Z
TLE epoch observation values (Epoch: 2024-06-11T12:59:38.458Z)
Latitude
-0.00005°
Longitude
107.29481°
Altitude
152.109 km
Speed
7.813 km/s
True Right ascension
13h 30m 15s
True Declination
0° 00' 00"
Sunlit
Object was in full shadow at epoch
Visualization orbit readout
Latitude
Unknown
Longitude
Unknown
Altitude
Unknown
Speed
Unknown
Apparent Right ascension
Unknown
Apparent Declination
Unknown
Sunlit
N/A
Visualization observer readout
Local Sidereal Time
17:20:22
Azimuth
Unknown
Elevation
Unknown
Doppler factor
Unknown
Orbital elements
Apogee altitude
148.685 km
Perigee altitude
135.304 km
Semi-major axis
6,520.132 km
Eccentricity
0.00103
Inclination
97.0194°
RAAN
202.5662°
Arg. of periapsis
237.323°
True anomaly
122.80737°
Mean anomaly
122.7085°
Eccentric anomaly
122.75794°
Mean motion
4.12248 °/min
Orbital period
87.33 mins
BSTAR
0.00022659
Loading maneuver chart data...
Computing Atmospheric mass density...
Loading historical data...
Loading historical data...
Loading historical data...
Loading historical data...
Loading historical data...
Loading historical data...
Loading historical data...

Documentation

Showing up to 5 results
|